Tracking 29892 objects as of 21-Nov-2024
HD Live streaming from Space Station
objects crossing your sky now

SKYNET 4C

Track SKYNET 4C now!
SKYNET 4C is classified as:


NORAD ID: 20776
Int'l Code: 1990-079A
Perigee: 35,777.2 km
Apogee: 35,809.7 km
Inclination: 13.5 °
Period: 1,436.1 minutes
Semi major axis: 42164 km
RCS: 11.1055 m2 (large)
Launch date: August 30, 1990
Source: United Kingdom (UK)
Launch site: FRENCH GUIANA (FRGUI)

Spare; used primarily by UK's armed forces, government departments, agencies and other organizations that require secure communications.
Your satellite tracking list
Your tracking list is empty




NASA's NSSDC Master Catalog

Two Line Element Set (TLE):
1 20776U 90079A   24325.76378818  .00000123  00000-0  00000-0 0  9997
2 20776  13.5248 353.7193 0003851 254.3871 120.4274  1.00272744125145
Source of the keplerian elements: AFSPC